{"data":{"norad_id":53669,"epoch":"2026-09-20T22:00:03.000096Z","epoch_age_seconds":45264,"freshness":"FRESH","line1":"1 53669U 22105X   26263.91670139  .00213286  21047-4  41688-3 0  9994","line2":"2 53669  97.5847 155.4787 0003757 148.8442 223.2654 16.00210826  6018","mean_motion":16.00210826,"eccentricity":0.0003757,"inclination_deg":97.5847,"raan_deg":155.4787,"arg_perigee_deg":148.8442,"mean_anomaly_deg":223.2654,"bstar":0.00041688,"rev_number":601,"period_min":89.988142599905,"perigee_km":271.33523163066,"apogee_km":276.33352292354,"semimajor_km":6651.9713772771,"source":"CELESTRAK","updated_at":"2026-09-21T09:00:32.976260Z"}}